XW-2D (40907 NORAD) Tracking and Keplerian Element Data

This shows tracking and keplerian element data for the satellite.

Feedback or suggestion? Click here.




ElementValue
Catalog40907
NameXW-2D
Epoch Orbit50292
Epoch Day286.11292957
Epoch Year2024
RAAN311.3769
Inclination97.4568
Eccentricity0.0004571
Argument of Perigee178.1271
Mean Anonmoly182.0013
Mean Motion15.76811464
Decay Rate0.00259984
L11 40907U 15049J 24286.11292957 .00259984 00000+0 15756-2 0 9999
L22 40907 97.4568 311.3769 0004571 178.1271 182.0013 15.76811464502921



Live tracking and technical data element details for XW-2D (NORAD 40907). XW-2D can be tracked NOW for your location showing map with azimuth and elevation plus other details from your city location.







IsCatalogInMostPopularTable: catalog: 40907, numindb: 577
Update: records affected: 1



GetName: 40907 XW-2D

Hit Count: updated at: Sat, 25 Jan 2025 00:08:32 GMT